When you browse on this site, cookies collect data to enhance your experience and personalize the content and advertising you see.
Visit our Privacy Policy to learn more. By continuing to use the site, you agree to this use of cookies and data.
  • în România
  • Lista ţărilor
  • Pe 7 zile
  • Temperatura apei
  • Hartă satelitară
  • Meteo pe hartă
  • Widget-uri
  • user-avatar
    Intrare

    Meteo pe oră la Biskira

    Astăzi, 24 Iunie, Luni

    Timp Temperatura Precipitaţii Vânt Presiune Umiditate
    00:00 +38°C° 0 mm 4 m/s 751 mmHg 10%
    01:00 +37°C° 0 mm 5 m/s 751 mmHg 11%
    02:00 +37°C° 0 mm 5 m/s 751 mmHg 12%
    03:00 +36°C° 0 mm 5 m/s 751 mmHg 13%
    04:00 +37°C° 0 mm 5 m/s 751 mmHg 13%
    05:00 +37°C° 0 mm 4 m/s 751 mmHg 14%
    06:00 +37°C° 0 mm 4 m/s 751 mmHg 14%
    07:00 +40°C° 0 mm 5 m/s 752 mmHg 13%
    08:00 +42°C° 0 mm 6 m/s 752 mmHg 11%
    09:00 +44°C° 0 mm 7 m/s 752 mmHg 10%
    10:00 +46°C° 0 mm 7 m/s 752 mmHg 8%
    11:00 +47°C° 0 mm 7 m/s 752 mmHg 7%
    12:00 +49°C° 0 mm 7 m/s 751 mmHg 6%
    13:00 +50°C° 0 mm 7 m/s 751 mmHg 5%
    14:00 +50°C° 0 mm 7 m/s 751 mmHg 5%
    15:00 +51°C° 0 mm 6 m/s 750 mmHg 4%
    16:00 +49°C° 0 mm 6 m/s 750 mmHg 5%
    17:00 +48°C° 0 mm 5 m/s 751 mmHg 5%
    18:00 +47°C° 0 mm 5 m/s 751 mmHg 6%
    19:00 +46°C° 0 mm 5 m/s 751 mmHg 6%
    20:00 +43°C° 0 mm 4 m/s 751 mmHg 7%
    21:00 +41°C° 0 mm 4 m/s 752 mmHg 8%
    22:00 +40°C° 0 mm 4 m/s 752 mmHg 8%
    23:00 +40°C° 0 mm 4 m/s 752 mmHg 9%

    Mâine, 25 Iunie, Marţi

    Timp Temperatura Precipitaţii Vânt Presiune Umiditate
    00:00 +38°C° 0 mm 4 m/s 752 mmHg 9%
    01:00 +37°C° 0 mm 3 m/s 752 mmHg 10%
    02:00 +36°C° 0 mm 3 m/s 752 mmHg 11%
    03:00 +35°C° 0 mm 3 m/s 752 mmHg 11%
    04:00 +36°C° 0 mm 3 m/s 752 mmHg 11%
    05:00 +36°C° 0 mm 3 m/s 752 mmHg 11%
    06:00 +37°C° 0 mm 3 m/s 753 mmHg 11%
    07:00 +40°C° 0 mm 4 m/s 753 mmHg 11%
    08:00 +42°C° 0 mm 5 m/s 753 mmHg 10%
    09:00 +44°C° 0 mm 6 m/s 753 mmHg 9%
    10:00 +46°C° 0 mm 6 m/s 753 mmHg 9%
    11:00 +47°C° 0 mm 5 m/s 753 mmHg 8%
    12:00 +48°C° 0 mm 5 m/s 753 mmHg 7%
    13:00 +48°C° 0 mm 5 m/s 753 mmHg 6%
    14:00 +49°C° 0 mm 4 m/s 752 mmHg 6%
    15:00 +49°C° 0 mm 4 m/s 752 mmHg 5%
    16:00 +49°C° 0 mm 4 m/s 752 mmHg 6%
    17:00 +47°C° 0 mm 3 m/s 752 mmHg 6%
    18:00 +47°C° 0 mm 3 m/s 752 mmHg 6%
    19:00 +45°C° 0 mm 3 m/s 753 mmHg 7%
    20:00 +42°C° 0 mm 2 m/s 753 mmHg 8%
    21:00 +40°C° 0 mm 2 m/s 754 mmHg 9%
    22:00 +39°C° 0 mm 2 m/s 754 mmHg 9%
    23:00 +39°C° 0 mm 3 m/s 753 mmHg 9%

    Poimâine, 26 Iunie, Miercuri

    Timp Temperatura Precipitaţii Vânt Presiune Umiditate
    00:00 +38°C° 0 mm 3 m/s 753 mmHg 10%
    01:00 +37°C° 0 mm 3 m/s 753 mmHg 15%
    02:00 +35°C° 0 mm 4 m/s 753 mmHg 20%
    03:00 +34°C° 0 mm 4 m/s 753 mmHg 26%
    04:00 +34°C° 0 mm 3 m/s 753 mmHg 26%
    05:00 +35°C° 0 mm 2 m/s 754 mmHg 26%
    06:00 +34°C° 0 mm 1 m/s 754 mmHg 26%
    07:00 +37°C° 0 mm 2 m/s 754 mmHg 23%
    08:00 +39°C° 0 mm 3 m/s 754 mmHg 20%
    09:00 +40°C° 0 mm 3 m/s 754 mmHg 17%
    10:00 +43°C° 0 mm 3 m/s 754 mmHg 15%
    11:00 +44°C° 0 mm 3 m/s 754 mmHg 13%
    12:00 +45°C° 0 mm 3 m/s 754 mmHg 11%
    13:00 +46°C° 0 mm 2 m/s 753 mmHg 10%
    14:00 +47°C° 0 mm 2 m/s 752 mmHg 9%
    15:00 +47°C° 0 mm 2 m/s 752 mmHg 8%
    16:00 +47°C° 0 mm 2 m/s 752 mmHg 8%
    17:00 +47°C° 0 mm 2 m/s 752 mmHg 8%
    18:00 +47°C° 0 mm 2 m/s 751 mmHg 8%
    19:00 +45°C° 0 mm 2 m/s 752 mmHg 8%
    20:00 +44°C° 0 mm 3 m/s 752 mmHg 9%
    21:00 +42°C° 0 mm 4 m/s 752 mmHg 10%
    22:00 +41°C° 0 mm 4 m/s 753 mmHg 11%
    23:00 +40°C° 0 mm 5 m/s 753 mmHg 13%

    27 Iunie, Joi

    Timp Temperatura Precipitaţii Vânt Presiune Umiditate
    00:00 +39°C° 0 mm 6 m/s 753 mmHg 14%
    01:00 +36°C° 0 mm 5 m/s 752 mmHg 18%
    02:00 +35°C° 0 mm 4 m/s 752 mmHg 22%
    03:00 +34°C° 0 mm 3 m/s 752 mmHg 26%
    04:00 +34°C° 0 mm 3 m/s 752 mmHg 28%
    05:00 +34°C° 0 mm 2 m/s 752 mmHg 29%
    06:00 +34°C° 0 mm 2 m/s 753 mmHg 31%
    07:00 +35°C° 0 mm 2 m/s 753 mmHg 28%
    08:00 +36°C° 0 mm 2 m/s 753 mmHg 26%
    09:00 +38°C° 0 mm 2 m/s 753 mmHg 24%
    10:00 +39°C° 0 mm 2 m/s 752 mmHg 21%
    11:00 +41°C° 0 mm 2 m/s 752 mmHg 18%
    12:00 +42°C° 0 mm 2 m/s 752 mmHg 15%
    13:00 +45°C° 0 mm 3 m/s 751 mmHg 13%
    14:00 +47°C° 0 mm 4 m/s 750 mmHg 10%
    15:00 +48°C° 0 mm 5 m/s 750 mmHg 8%
    16:00 +48°C° 0 mm 6 m/s 749 mmHg 7%
    17:00 +49°C° 0 mm 8 m/s 749 mmHg 6%
    18:00 +48°C° 0 mm 9 m/s 749 mmHg 6%
    19:00 +45°C° 0 mm 8 m/s 750 mmHg 9%
    20:00 +42°C° 0 mm 6 m/s 750 mmHg 12%
    21:00 +39°C° 0 mm 5 m/s 751 mmHg 15%
    22:00 +37°C° 0 mm 4 m/s 751 mmHg 18%
    23:00 +36°C° 0 mm 4 m/s 751 mmHg 21%

    28 Iunie, Vineri

    Timp Temperatura Precipitaţii Vânt Presiune Umiditate
    00:00 +35°C° 0 mm 4 m/s 751 mmHg 25%
    01:00 +34°C° 0 mm 4 m/s 751 mmHg 27%
    02:00 +33°C° 0 mm 3 m/s 751 mmHg 30%
    03:00 +31°C° 0 mm 3 m/s 750 mmHg 33%
    04:00 +32°C° 0 mm 2 m/s 751 mmHg 32%
    05:00 +32°C° 0 mm 2 m/s 751 mmHg 32%
    06:00 +32°C° 0 mm 2 m/s 751 mmHg 32%
    07:00 +35°C° 0 mm 2 m/s 751 mmHg 30%
    08:00 +36°C° 0 mm 3 m/s 751 mmHg 28%
    09:00 +37°C° 0 mm 3 m/s 751 mmHg 26%
    10:00 +38°C° 0 mm 3 m/s 751 mmHg 24%
    11:00 +39°C° 0 mm 3 m/s 751 mmHg 22%
    12:00 +40°C° 0 mm 2 m/s 750 mmHg 20%
    13:00 +42°C° 0 mm 3 m/s 750 mmHg 19%
    14:00 +42°C° 0 mm 3 m/s 749 mmHg 18%
    15:00 +43°C° 0 mm 3 m/s 749 mmHg 16%
    16:00 +43°C° 0 mm 3 m/s 749 mmHg 16%
    17:00 +43°C° 0 mm 3 m/s 749 mmHg 16%
    18:00 +43°C° 0 mm 3 m/s 748 mmHg 15%
    19:00 +40°C° 0 mm 3 m/s 749 mmHg 17%
    20:00 +39°C° 0 mm 3 m/s 749 mmHg 20%
    21:00 +37°C° 0 mm 2 m/s 750 mmHg 22%
    22:00 +37°C° 0 mm 3 m/s 750 mmHg 23%
    23:00 +36°C° 0 mm 3 m/s 750 mmHg 25%

    29 Iunie, Sâmbătă

    Timp Temperatura Precipitaţii Vânt Presiune Umiditate
    00:00 +35°C° 0 mm 3 m/s 750 mmHg 26%
    01:00 +35°C° 0 mm 4 m/s 750 mmHg 29%
    02:00 +34°C° 0 mm 4 m/s 750 mmHg 31%
    03:00 +33°C° 0 mm 5 m/s 749 mmHg 34%
    04:00 +33°C° 0 mm 5 m/s 750 mmHg 34%
    05:00 +33°C° 0 mm 4 m/s 750 mmHg 35%
    06:00 +33°C° 0 mm 4 m/s 751 mmHg 36%
    07:00 +34°C° 0 mm 4 m/s 751 mmHg 34%
    08:00 +36°C° 0 mm 4 m/s 751 mmHg 32%
    09:00 +37°C° 0 mm 4 m/s 751 mmHg 30%
    10:00 +38°C° 0 mm 4 m/s 751 mmHg 27%
    11:00 +39°C° 0 mm 3 m/s 750 mmHg 25%
    12:00 +40°C° 0 mm 3 m/s 750 mmHg 22%
    13:00 +42°C° 0 mm 3 m/s 750 mmHg 20%
    14:00 +43°C° 0 mm 3 m/s 749 mmHg 18%
    15:00 +44°C° 0 mm 3 m/s 749 mmHg 15%
    16:00 +44°C° 0 mm 3 m/s 749 mmHg 15%
    17:00 +43°C° 0 mm 3 m/s 749 mmHg 14%
    18:00 +43°C° 0 mm 3 m/s 749 mmHg 14%
    19:00 +42°C° 0 mm 3 m/s 749 mmHg 16%
    20:00 +39°C° 0 mm 2 m/s 750 mmHg 17%
    21:00 +38°C° 0 mm 2 m/s 750 mmHg 19%
    22:00 +37°C° 0 mm 3 m/s 750 mmHg 21%
    23:00 +36°C° 0 mm 3 m/s 750 mmHg 23%
    Arată mai mult